TUX1301 DTTA-LMML

Flight info

Callsign TUX1301
Flight time 0h 39m
Altitude 23000
Route DIDON2C DIDON M978 GZO
Aircraft A320/M-SDE3FGHIRWY/LB1

Departure

Time 2026-04-28 18:44
Airport Tunis Carthage International Airport (DTTA)

Arrival

Time 2026-04-28 19:23
Airport Malta International Airport (LMML)
Time Latitude Longitude Altitude Speed Heading
2026-04-28 18:09 36.84874 10.21949 29 ft 0 kts 282°
2026-04-28 18:33 36.84869 10.21976 57 ft 4 kts 287°
2026-04-28 18:33 36.84860 10.22007 29 ft 4 kts 300°
2026-04-28 18:33 36.84843 10.22031 30 ft 4 kts 342°
2026-04-28 18:33 36.84831 10.22034 30 ft 1 kts
2026-04-28 18:34 36.84829 10.22034 30 ft 0 kts
2026-04-28 18:36 36.84833 10.22034 30 ft 3 kts
2026-04-28 18:36 36.84879 10.22050 30 ft 10 kts 30°
2026-04-28 18:36 36.84887 10.22058 30 ft 11 kts 41°
2026-04-28 18:36 36.84887 10.22128 30 ft 13 kts 95°
2026-04-28 18:37 36.84876 10.22267 30 ft 18 kts 96°
2026-04-28 18:37 36.84886 10.22341 29 ft 0 kts 46°
2026-04-28 18:40 36.84891 10.22347 30 ft 4 kts 46°
2026-04-28 18:40 36.84934 10.22378 31 ft 11 kts 18°
2026-04-28 18:40 36.85013 10.22341 31 ft 17 kts 296°
2026-04-28 18:40 36.85063 10.22193 31 ft 18 kts 293°
2026-04-28 18:41 36.85110 10.22054 30 ft 17 kts 292°
2026-04-28 18:41 36.85153 10.21926 30 ft 15 kts 293°
2026-04-28 18:41 36.85193 10.21807 30 ft 14 kts 293°
2026-04-28 18:41 36.85247 10.21717 30 ft 12 kts 337°
2026-04-28 18:42 36.85323 10.21737 30 ft 11 kts 23°
2026-04-28 18:42 36.85382 10.21771 31 ft 8 kts 36°
2026-04-28 18:42 36.85403 10.21821 32 ft 6 kts 83°
2026-04-28 18:42 36.85397 10.21854 32 ft 0 kts 109°
2026-04-28 18:43 36.85380 10.21914 31 ft 36 kts 110°
2026-04-28 18:43 36.85190 10.22478 36 ft 102 kts 112°
2026-04-28 18:43 36.84847 10.23507 34 ft 155 kts 112°
2026-04-28 18:43 36.84425 10.24777 551 ft 160 kts 111°
2026-04-28 18:44 36.83950 10.26067 1058 ft 167 kts 117°
2026-04-28 18:44 36.82809 10.28680 2310 ft 180 kts 119°
2026-04-28 18:44 36.82173 10.30137 2655 ft 203 kts 118°
2026-04-28 18:45 36.81459 10.31779 2990 ft 228 kts 118°
2026-04-28 18:45 36.80662 10.33612 3428 ft 252 kts 119°
2026-04-28 18:45 36.79801 10.35590 4094 ft 266 kts 119°
2026-04-28 18:45 36.78907 10.37645 4973 ft 272 kts 118°
2026-04-28 18:46 36.78307 10.39896 5798 ft 280 kts 96°
2026-04-28 18:46 36.78487 10.42326 6615 ft 286 kts 73°
2026-04-28 18:46 36.79055 10.44710 7472 ft 289 kts 72°
2026-04-28 18:46 36.79633 10.47102 8323 ft 293 kts 72°
2026-04-28 18:47 36.80195 10.49569 9189 ft 297 kts 78°
2026-04-28 18:47 36.80357 10.52156 9785 ft 303 kts 94°
2026-04-28 18:47 36.79984 10.54742 9947 ft 303 kts 104°
2026-04-28 18:47 36.79476 10.57412 9996 ft 331 kts 103°
2026-04-28 18:48 36.78942 10.60239 9999 ft 340 kts 103°
2026-04-28 18:48 36.78396 10.63139 10002 ft 342 kts 103°
2026-04-28 18:48 36.77852 10.66034 10227 ft 349 kts 103°
2026-04-28 18:48 36.77296 10.68983 11069 ft 350 kts 103°
2026-04-28 18:49 36.76728 10.71964 11815 ft 356 kts 103°
2026-04-28 18:49 36.76533 10.72987 12061 ft 358 kts 103°
2026-04-28 18:49 36.75557 10.78080 13223 ft 368 kts 103°
2026-04-28 18:49 36.74962 10.81216 13890 ft 375 kts 103°
2026-04-28 18:50 36.74364 10.84403 14524 ft 379 kts 103°
2026-04-28 18:50 36.73766 10.87618 15182 ft 383 kts 103°
2026-04-28 18:50 36.73162 10.90886 15849 ft 387 kts 103°
2026-04-28 18:50 36.72555 10.94168 16494 ft 391 kts 104°
2026-04-28 18:51 36.71942 10.97462 17128 ft 394 kts 104°
2026-04-28 18:51 36.71314 11.00829 17762 ft 398 kts 104°
2026-04-28 18:51 36.70680 11.04207 18385 ft 402 kts 104°
2026-04-28 18:51 36.70044 11.07584 18925 ft 406 kts 104°
2026-04-28 18:52 36.69398 11.11024 19472 ft 409 kts 104°
2026-04-28 18:52 36.68740 11.14531 20040 ft 413 kts 104°
2026-04-28 18:52 36.68078 11.18052 20600 ft 416 kts 104°
2026-04-28 18:52 36.67420 11.21529 21144 ft 420 kts 104°
2026-04-28 18:53 36.66746 11.25075 21685 ft 424 kts 104°
2026-04-28 18:53 36.66063 11.28657 22228 ft 427 kts 104°
2026-04-28 18:53 36.65372 11.32287 22769 ft 431 kts 104°
2026-04-28 18:53 36.64678 11.35929 22983 ft 433 kts 104°
2026-04-28 18:54 36.63996 11.39529 23018 ft 422 kts 104°
2026-04-28 18:54 36.63329 11.43056 23018 ft 418 kts 104°
2026-04-28 18:54 36.62656 11.46584 23020 ft 417 kts 104°
2026-04-28 18:54 36.61984 11.50085 23016 ft 417 kts 104°
2026-04-28 18:55 36.61314 11.53605 23015 ft 417 kts 104°
2026-04-28 18:55 36.60877 11.55922 23019 ft 416 kts 104°
2026-04-28 18:55 36.60001 11.60579 23011 ft 416 kts 104°
2026-04-28 18:55 36.59338 11.64078 23018 ft 416 kts 104°
2026-04-28 18:56 36.58672 11.67587 23020 ft 416 kts 104°
2026-04-28 18:56 36.58001 11.71110 23022 ft 416 kts 104°
2026-04-28 18:56 36.57334 11.74606 23023 ft 416 kts 104°
2026-04-28 18:56 36.56666 11.78103 23023 ft 416 kts 104°
2026-04-28 18:57 36.55995 11.81610 23022 ft 416 kts 104°
2026-04-28 18:57 36.55957 11.81808 23020 ft 416 kts 104°
2026-04-28 18:57 36.55934 11.81924 23020 ft 416 kts 104°
2026-04-28 18:58 36.55861 11.82326 23044 ft 410 kts 100°
2026-04-28 18:58 36.55716 11.83466 23178 ft 394 kts 94°
2026-04-28 18:58 36.55446 11.86855 23037 ft 403 kts 99°
2026-04-28 18:59 36.54874 11.90310 23014 ft 412 kts 105°
2026-04-28 18:59 36.54091 11.93744 23027 ft 414 kts 108°
2026-04-28 18:59 36.53240 11.97165 23027 ft 415 kts 108°
2026-04-28 18:59 36.52406 12.00617 23025 ft 415 kts 107°
2026-04-28 19:00 36.51638 12.04065 23021 ft 416 kts 106°
2026-04-28 19:00 36.51157 12.06373 23022 ft 416 kts 105°
2026-04-28 19:00 36.50469 12.09862 23024 ft 416 kts 104°
2026-04-28 19:00 36.49591 12.14486 23023 ft 416 kts 104°
2026-04-28 19:01 36.49139 12.16787 23031 ft 416 kts 104°
2026-04-28 19:01 36.48411 12.20341 23029 ft 417 kts 105°
2026-04-28 19:01 36.47677 12.23790 23031 ft 417 kts 106°
2026-04-28 19:01 36.46915 12.27297 23025 ft 417 kts 106°
2026-04-28 19:02 36.46160 12.30747 23028 ft 417 kts 106°
2026-04-28 19:02 36.45398 12.34240 23032 ft 417 kts 106°
2026-04-28 19:02 36.44648 12.37684 23032 ft 417 kts 106°
2026-04-28 19:02 36.43881 12.41225 23034 ft 417 kts 106°
2026-04-28 19:03 36.43133 12.44700 23040 ft 417 kts 106°
2026-04-28 19:03 36.42398 12.48111 23032 ft 417 kts 105°
2026-04-28 19:03 36.41644 12.51610 23030 ft 417 kts 105°
2026-04-28 19:03 36.40893 12.55101 23030 ft 417 kts 105°
2026-04-28 19:04 36.40148 12.58559 23030 ft 417 kts 106°
2026-04-28 19:04 36.39402 12.62001 23035 ft 416 kts 106°
2026-04-28 19:04 36.38638 12.65505 23035 ft 416 kts 106°
2026-04-28 19:04 36.37887 12.68943 23042 ft 416 kts 106°
2026-04-28 19:05 36.37140 12.72361 23039 ft 416 kts 106°
2026-04-28 19:05 36.36361 12.75921 23042 ft 416 kts 106°
2026-04-28 19:05 36.35610 12.79347 23039 ft 416 kts 106°
2026-04-28 19:05 36.34954 12.82341 22983 ft 414 kts 106°
2026-04-28 19:06 36.34207 12.85743 22703 ft 405 kts 106°
2026-04-28 19:06 36.33486 12.89033 22442 ft 399 kts 106°
2026-04-28 19:06 36.32759 12.92350 22181 ft 397 kts 106°
2026-04-28 19:06 36.32024 12.95694 21912 ft 395 kts 106°
2026-04-28 19:07 36.31311 12.98920 21658 ft 393 kts 106°
2026-04-28 19:07 36.30583 13.02214 21401 ft 391 kts 106°
2026-04-28 19:07 36.29872 13.05431 21146 ft 390 kts 106°
2026-04-28 19:07 36.29155 13.08667 20883 ft 388 kts 106°
2026-04-28 19:08 36.28444 13.11880 20659 ft 387 kts 106°
2026-04-28 19:08 36.27728 13.15092 20406 ft 385 kts 106°
2026-04-28 19:08 36.27015 13.18279 20156 ft 383 kts 106°
2026-04-28 19:08 36.26308 13.21439 19921 ft 382 kts 106°
2026-04-28 19:09 36.25605 13.24587 19678 ft 380 kts 106°
2026-04-28 19:09 36.24896 13.27769 19437 ft 379 kts 106°
2026-04-28 19:09 36.24200 13.30890 19166 ft 374 kts 106°
2026-04-28 19:09 36.23507 13.33993 18745 ft 373 kts 106°
2026-04-28 19:10 36.22810 13.37102 18310 ft 373 kts 106°
2026-04-28 19:10 36.22115 13.40194 17801 ft 372 kts 106°
2026-04-28 19:10 36.21422 13.43266 17375 ft 370 kts 106°
2026-04-28 19:10 36.20729 13.46330 16943 ft 369 kts 106°
2026-04-28 19:11 36.20036 13.49395 16497 ft 368 kts 106°
2026-04-28 19:11 36.19351 13.52429 16057 ft 367 kts 106°
2026-04-28 19:11 36.18664 13.55467 15619 ft 366 kts 106°
2026-04-28 19:11 36.17979 13.58491 15176 ft 365 kts 106°
2026-04-28 19:12 36.17292 13.61516 14739 ft 364 kts 106°
2026-04-28 19:12 36.16606 13.64532 14297 ft 364 kts 106°
2026-04-28 19:12 36.15921 13.67546 13846 ft 364 kts 106°
2026-04-28 19:12 36.15246 13.70517 13369 ft 362 kts 106°
2026-04-28 19:13 36.14566 13.73510 12905 ft 360 kts 106°
2026-04-28 19:13 36.13889 13.76488 12452 ft 358 kts 106°
2026-04-28 19:13 36.13214 13.79441 11997 ft 356 kts 106°
2026-04-28 19:13 36.12543 13.82373 11562 ft 353 kts 106°
2026-04-28 19:14 36.11876 13.85289 11095 ft 351 kts 106°
2026-04-28 19:14 36.11213 13.88171 10647 ft 348 kts 106°
2026-04-28 19:14 36.10551 13.91037 10320 ft 342 kts 106°
2026-04-28 19:14 36.09906 13.93824 10191 ft 330 kts 106°
2026-04-28 19:15 36.09289 13.96496 10069 ft 318 kts 106°
2026-04-28 19:15 36.08690 13.99096 9788 ft 313 kts 106°
2026-04-28 19:15 36.08297 14.00805 9552 ft 310 kts 106°
2026-04-28 19:15 36.07708 14.03360 9178 ft 308 kts 105°
2026-04-28 19:16 36.06929 14.06738 8575 ft 302 kts 106°
2026-04-28 19:16 36.06354 14.09226 7894 ft 299 kts 105°
2026-04-28 19:16 36.05794 14.11648 7253 ft 296 kts 105°
2026-04-28 19:16 36.05224 14.14113 6593 ft 292 kts 105°
2026-04-28 19:17 36.04671 14.16495 5835 ft 292 kts 105°
2026-04-28 19:17 36.04098 14.18960 5213 ft 297 kts 105°
2026-04-28 19:17 36.03513 14.21387 4956 ft 288 kts 108°
2026-04-28 19:17 36.02883 14.23645 4823 ft 276 kts 109°
2026-04-28 19:18 36.02233 14.25810 4696 ft 263 kts 110°
2026-04-28 19:18 36.01562 14.27855 4535 ft 251 kts 119°
2026-04-28 19:18 36.00462 14.29492 4257 ft 245 kts 135°
2026-04-28 19:18 35.99277 14.30941 3941 ft 234 kts 135°
2026-04-28 19:19 35.98159 14.32319 3665 ft 224 kts 135°
2026-04-28 19:19 35.97084 14.33656 3374 ft 210 kts 135°
2026-04-28 19:19 35.96107 14.34874 3136 ft 189 kts 134°
2026-04-28 19:19 35.95231 14.35964 2861 ft 170 kts 135°
2026-04-28 19:20 35.94440 14.36948 2683 ft 152 kts 135°
2026-04-28 19:20 35.93727 14.37837 2464 ft 142 kts 135°
2026-04-28 19:20 35.93039 14.38692 2282 ft 139 kts 135°
2026-04-28 19:20 35.92368 14.39527 2105 ft 136 kts 135°
2026-04-28 19:21 35.91699 14.40355 1917 ft 135 kts 135°
2026-04-28 19:21 35.91045 14.41180 1695 ft 134 kts 134°
2026-04-28 19:21 35.90402 14.42016 1512 ft 135 kts 134°
2026-04-28 19:21 35.89738 14.42828 1333 ft 134 kts 135°
2026-04-28 19:22 35.89075 14.43635 1193 ft 134 kts 135°
2026-04-28 19:22 35.88643 14.44166 1084 ft 133 kts 135°
2026-04-28 19:22 35.87776 14.45236 871 ft 131 kts 133°
2026-04-28 19:22 35.87131 14.46029 704 ft 130 kts 132°
2026-04-28 19:23 35.86499 14.46819 515 ft 129 kts 131°
2026-04-28 19:23 35.85871 14.47588 354 ft 129 kts 131°
2026-04-28 19:23 35.85253 14.48364 273 ft 115 kts 134°
2026-04-28 19:23 35.84882 14.48819 259 ft 31 kts 134°
2026-04-28 19:24 35.84824 14.48890 258 ft 9 kts 135°
2026-04-28 19:24 35.84794 14.48961 259 ft 10 kts 81°
2026-04-28 19:24 35.84846 14.48972 258 ft 8 kts 348°
2026-04-28 19:24 35.84899 14.48974 258 ft 7 kts 11°
2026-04-28 19:25 35.84928 14.49007 258 ft 5 kts 55°
2026-04-28 19:25 35.84949 14.49009 258 ft 3 kts 339°
2026-04-28 19:25 35.84965 14.48991 259 ft 4 kts 309°
2026-04-28 19:25 35.84983 14.48942 259 ft 8 kts 290°
2026-04-28 19:26 35.85000 14.48860 259 ft 11 kts 284°
2026-04-28 19:26 35.85021 14.48764 262 ft 11 kts 285°
2026-04-28 19:26 35.85038 14.48690 264 ft 7 kts 287°
2026-04-28 19:26 35.85048 14.48649 266 ft 3 kts 287°
2026-04-28 19:27 35.85053 14.48630 266 ft 4 kts 288°
2026-04-28 19:27 35.85075 14.48583 268 ft 7 kts 310°
2026-04-28 19:27 35.85105 14.48545 270 ft 7 kts 316°